Regional Weather Roundup
Issued by NWS

Home | Current Version | Previous Version | Graphics & Text | Print | Product List | Glossary On
Versions: 1 2 3 4 5 6 7 8 9 10 11 12 13 14 15 16 17 18 19 20 21 22 23 24 25 26 27 28 29 30 31 32 33 34 35 36 37 38 39 40 41 42 43 44 45 46 47 48 49 50
785
ASUS43 KIND 271409
RWRIN

WEATHER ROUNDUP FOR INDIANA
NATIONAL WEATHER SERVICE INDIANAPOLIS IN
900 AM EST MON FEB 27 2017

NOTE: "FAIR" INDICATES FEW OR NO CLOUDS BELOW 12,000 FEET WITH NO
SIGNIFICANT WEATHER AND/OR OBSTRUCTIONS TO VISIBILITY.

* - STATION DOES NOT REPORT WEATHER SUCH AS PRECIPITATION OR FOG.

+ - STATION NOT QUALITY CONTROLLED BY THE NATIONAL WEATHER SERVICE.
    USE DATA WITH CAUTION...ESPECIALLY DEWPOINT AND RELATIVE
    HUMIDITY OBSERVATIONS.

INZ001>003-010>013-019-020-271500-
NORTHWEST INDIANA

CITY           SKY/WX    TMP DP  RH WIND       PRES   REMARKS
GARY /AIRPORT/ MOSUNNY   36  28  75 CALM      30.17R
KNOX *+        SUNNY     34  12  40 S6        30.19R WCI  29
LA PORTE +     SUNNY     32  27  81 S3        30.18S
MICHIGAN CITY+ MOSUNNY   36  30  80 S5        30.19R
MONTICELLO +   CLOUDY    37  31  76 S5        30.20R
RENSSELAER +     N/A     36  32  87 SE6       30.19S
VALPARAISO     MOSUNNY   34  28  79 S6        30.18R WCI  29

$$

LMZ046-743>745-271500-
SOUTHERN LAKE MICHIGAN

STATION/POSITION TIME  TEMP    WIND        PRES    WAVE
                       AIR SEA DIR/SP/G            HT
                 (UTC) (F)     (DEG/KT/KT) (MB)    (FT)
BURNS HARBOR     1340   34     190/  7/ 10 1022.0R
MICHIGAN CITY    1340   35     160/  6/  7   N/A

$$

INZ004-005-014>016-021>024-271500-
NORTH CENTRAL INDIANA

CITY           SKY/WX    TMP DP  RH WIND       PRES   REMARKS
ELKHART        SUNNY     36  27  69 S6        30.19R
GOSHEN         SUNNY     37  25  61 S6        30.19R
LOGANSPORT +   DRIZZLE   36  32  87 S6        30.21R
PERU/GRISSOM   CLOUDY    38  34  85 S6        30.20R
ROCHESTER +    SUNNY     39  30  70 S5        30.20S
SOUTH BEND     SUNNY     34  27  75 SW8       30.19R WCI  27
WARSAW +       SUNNY     36  27  69 S6        30.20R

$$

INZ006>009-017-018-025>027-271500-
NORTHEAST INDIANA

CITY           SKY/WX    TMP DP  RH WIND       PRES   REMARKS
ANGOLA *+      SUNNY     36  27  69 S6        30.19R
AUBURN +       SUNNY     37  27  65 S3        30.22R
FORT WAYNE     PTSUNNY   37  28  70 S7        30.22R
HUNTINGTON +   DRIZZLE   36  29  75 CALM      30.22R
KENDALLVILLE + SUNNY     36  26  68 SW7       30.19S

$$

INZ028-029-035-036-043>045-051>053-271500-
WEST CENTRAL INDIANA

CITY           SKY/WX    TMP DP  RH WIND       PRES   REMARKS
LAFAYETTE      LGT RAIN  38  35  89 CALM      30.21R
TERRE HAUTE    CLOUDY    42  33  70 SE3       30.20R

$$

INZ030>032-037>040-046>048-054>057-064-065-271500-
CENTRAL INDIANA

CITY           SKY/WX    TMP DP  RH WIND       PRES   REMARKS
ANDERSON       CLOUDY    39  30  70 S6        30.23
CP ATTERBURY + CLOUDY    43  30  61 S5        30.23S
COLUMBUS       CLOUDY    41  34  75 S6        30.23R
FISHERS *+     CLOUDY    41  32  70 SE5       30.21S
FRANKFORT +    CLOUDY    42  37  83 CALM      30.23R
GREENWOOD *+   CLOUDY    42  26  54 SE6       30.22S
INDIANAPOLIS   CLOUDY    42  27  55 SE8       30.21R
-EAGLE CREEK   CLOUDY    43  29  57 SE3       30.21R
KOKOMO +       LGT RAIN  38  35  89 S5        30.23R
MARION +       CLOUDY    38  34  84 S7        30.23R
MT COMFORT *+  CLOUDY    41  28  60 SE5       30.22R
SHELBYVILLE    CLOUDY    43  27  53 SE7       30.22R
ZIONSVILLE +   CLOUDY    40  33  76 SE3       30.21S

$$

INZ033-034-041-042-049-050-058-059-271500-
EAST CENTRAL INDIANA

CITY           SKY/WX    TMP DP  RH WIND       PRES   REMARKS
MUNCIE         CLOUDY    42  30  62 S6        30.23R

$$

INZ060-061-067>069-081>083-085>088-271500-
SOUTHWEST INDIANA

CITY           SKY/WX    TMP DP  RH WIND       PRES   REMARKS
EVANSVILLE     CLOUDY    45  40  82 E6        30.19S
HUNTINGBURG *+ CLOUDY    43  41  93 SE7       30.19F
WASHINGTON +   CLOUDY    43  37  79 SE3       30.20S

$$

INZ062-063-066-070>080-084-089>092-271500-
SOUTH CENTRAL AND SOUTHEAST INDIANA

CITY           SKY/WX    TMP DP  RH WIND       PRES   REMARKS
BEDFORD +      CLOUDY    43  36  75 SE5       30.20S
BLOOMINGTON    CLOUDY    42  34  73 SE3       30.21R
MADISON *+     CLOUDY    43  37  81 CALM      30.25F
NORTH VERNON + CLOUDY    43  36  75 S5        30.24R
SEYMOUR +      CLOUDY    45  37  76 SE5       30.23S

$$





USA.gov is the U.S. government's official web portal to all federal, state and local government web resources and services.